TimeEST,TemperatureF,Dew PointF,Humidity,Sea Level PressureIn,VisibilityMPH,Wind Direction,Wind SpeedMPH,Gust SpeedMPH,PrecipitationIn,Events,Conditions,WindDirDegrees,DateUTC
12:54 AM,28.0,25.0,88,30.46,10.0,Calm,Calm,-,N/A,,Clear,0,2013-01-19 05:54:00
1:49 AM,26.6,24.8,93,30.42,10.0,Calm,Calm,-,N/A,,Partly Cloudy,0,2013-01-19 06:49:00
1:54 AM,28.0,25.0,88,30.45,10.0,Calm,Calm,-,N/A,,Partly Cloudy,0,2013-01-19 06:54:00
2:54 AM,30.0,27.0,88,30.44,10.0,SE,4.6,-,N/A,,Clear,140,2013-01-19 07:54:00
3:54 AM,27.0,24.1,89,30.43,10.0,Calm,Calm,-,N/A,,Clear,0,2013-01-19 08:54:00
4:54 AM,26.1,24.1,92,30.43,10.0,SSE,4.6,-,N/A,,Clear,160,2013-01-19 09:54:00
5:54 AM,26.1,23.0,88,30.43,10.0,Calm,Calm,-,N/A,,Clear,0,2013-01-19 10:54:00
6:54 AM,25.0,21.9,88,30.44,10.0,Calm,Calm,-,N/A,,Clear,0,2013-01-19 11:54:00
7:54 AM,25.0,21.9,88,30.45,10.0,Calm,Calm,-,N/A,,Clear,0,2013-01-19 12:54:00
8:54 AM,28.0,27.0,96,30.45,10.0,Calm,Calm,-,N/A,,Clear,0,2013-01-19 13:54:00
9:54 AM,33.1,28.0,82,30.45,10.0,Calm,Calm,-,N/A,,Clear,0,2013-01-19 14:54:00
10:54 AM,37.9,26.1,62,30.42,10.0,Calm,Calm,-,N/A,,Clear,0,2013-01-19 15:54:00
11:54 AM,43.0,28.0,56,30.37,10.0,Calm,Calm,-,N/A,,Clear,0,2013-01-19 16:54:00
12:54 PM,48.0,23.0,37,30.30,10.0,Calm,Calm,-,N/A,,Clear,0,2013-01-19 17:54:00
1:54 PM,52.0,24.1,34,30.25,10.0,Variable,3.5,-,N/A,,Clear,0,2013-01-19 18:54:00
2:54 PM,55.0,17.1,23,30.21,10.0,SW,10.4,-,N/A,,Clear,220,2013-01-19 19:54:00
3:54 PM,53.1,21.9,30,30.21,10.0,South,11.5,-,N/A,,Clear,170,2013-01-19 20:54:00
4:54 PM,50.0,25.0,38,30.21,10.0,South,10.4,-,N/A,,Clear,180,2013-01-19 21:54:00
5:54 PM,46.0,28.0,50,30.21,10.0,South,10.4,-,N/A,,Clear,190,2013-01-19 22:54:00
6:54 PM,42.1,27.0,55,30.23,10.0,SSE,6.9,-,N/A,,Clear,160,2013-01-19 23:54:00
7:54 PM,39.9,26.1,58,30.23,10.0,SSE,5.8,-,N/A,,Clear,160,2013-01-20 00:54:00
8:54 PM,39.0,26.1,60,30.22,10.0,South,5.8,-,N/A,,Clear,170,2013-01-20 01:54:00
9:54 PM,37.0,26.1,65,30.21,10.0,Calm,Calm,-,N/A,,Clear,0,2013-01-20 02:54:00
10:54 PM,33.1,26.1,75,30.19,10.0,Calm,Calm,-,N/A,,Clear,0,2013-01-20 03:54:00
11:54 PM,32.0,28.0,85,30.17,10.0,Calm,Calm,-,N/A,,Clear,0,2013-01-20 04:54:00